owner,sensor,date,latitude,longitude,sea_surface_height_above_sea_level,qcFlag 
TCOON,ioos:station:TCOON:518:1,2015-10-01T00:12:00Z,29.5150,-94.5133,1.571,1111122 
TCOON,ioos:station:TCOON:518:1,2015-10-01T01:12:00Z,29.5150,-94.5133,1.679,1111122 
TCOON,ioos:station:TCOON:518:1,2015-10-01T02:12:00Z,29.5150,-94.5133,1.716,1111122 
TCOON,ioos:station:TCOON:518:1,2015-10-01T03:18:00Z,29.5150,-94.5133,1.727,1111122 
TCOON,ioos:station:TCOON:518:1,2015-10-01T04:12:00Z,29.5150,-94.5133,1.732,1111122 
TCOON,ioos:station:TCOON:518:1,2015-10-01T05:30:00Z,29.5150,-94.5133,1.732,1111122 
TCOON,ioos:station:TCOON:518:1,2015-10-01T06:24:00Z,29.5150,-94.5133,1.719,1111122 
TCOON,ioos:station:TCOON:518:1,2015-10-01T07:54:00Z,29.5150,-94.5133,1.677,1111122 
TCOON,ioos:station:TCOON:518:1,2015-10-01T08:24:00Z,29.5150,-94.5133,1.645,1111122 
TCOON,ioos:station:TCOON:518:1,2015-10-01T09:24:00Z,29.5150,-94.5133,1.619,1111122 
TCOON,ioos:station:TCOON:518:1,2015-10-01T10:24:00Z,29.5150,-94.5133,1.616,1111122 
TCOON,ioos:station:TCOON:518:1,2015-10-01T11:12:00Z,29.5150,-94.5133,1.597,1111122 
TCOON,ioos:station:TCOON:518:1,2015-10-01T12:18:00Z,29.5150,-94.5133,1.585,1111122 
TCOON,ioos:station:TCOON:518:1,2015-10-01T13:18:00Z,29.5150,-94.5133,1.586,1111122 
TCOON,ioos:station:TCOON:518:1,2015-10-01T14:42:00Z,29.5150,-94.5133,1.559,1111122 
TCOON,ioos:station:TCOON:518:1,2015-10-01T15:24:00Z,29.5150,-94.5133,1.527,1111122 
TCOON,ioos:station:TCOON:518:1,2015-10-01T16:12:00Z,29.5150,-94.5133,1.489,1111122 
TCOON,ioos:station:TCOON:518:1,2015-10-01T17:12:00Z,29.5150,-94.5133,1.461,1111122 
TCOON,ioos:station:TCOON:518:1,2015-10-01T18:24:00Z,29.5150,-94.5133,1.396,1111122 
TCOON,ioos:station:TCOON:518:1,2015-10-01T19:12:00Z,29.5150,-94.5133,1.389,1111122 
TCOON,ioos:station:TCOON:518:1,2015-10-01T20:24:00Z,29.5150,-94.5133,1.363,1111122 
TCOON,ioos:station:TCOON:518:1,2015-10-01T21:24:00Z,29.5150,-94.5133,1.332,1111122 
TCOON,ioos:station:TCOON:518:1,2015-10-01T22:30:00Z,29.5150,-94.5133,1.32,1111122 
TCOON,ioos:station:TCOON:518:1,2015-10-01T23:30:00Z,29.5150,-94.5133,1.353,1111122 
TCOON,ioos:station:TCOON:518:1,2015-10-02T00:12:00Z,29.5150,-94.5133,1.41,1111122 
TCOON,ioos:station:TCOON:518:1,2015-10-02T01:12:00Z,29.5150,-94.5133,1.495,1111122 
TCOON,ioos:station:TCOON:518:1,2015-10-02T02:12:00Z,29.5150,-94.5133,1.564,1111122 
TCOON,ioos:station:TCOON:518:1,2015-10-02T03:18:00Z,29.5150,-94.5133,1.607,1111122 
TCOON,ioos:station:TCOON:518:1,2015-10-02T04:12:00Z,29.5150,-94.5133,1.617,1111122 
TCOON,ioos:station:TCOON:518:1,2015-10-02T05:12:00Z,29.5150,-94.5133,1.624,1111122 
TCOON,ioos:station:TCOON:518:1,2015-10-02T06:18:00Z,29.5150,-94.5133,1.625,1111122 
TCOON,ioos:station:TCOON:518:1,2015-10-02T07:42:00Z,29.5150,-94.5133,1.604,1111122 
TCOON,ioos:station:TCOON:518:1,2015-10-02T08:18:00Z,29.5150,-94.5133,1.602,1111122 
TCOON,ioos:station:TCOON:518:1,2015-10-02T09:12:00Z,29.5150,-94.5133,1.568,1111122 
TCOON,ioos:station:TCOON:518:1,2015-10-02T10:24:00Z,29.5150,-94.5133,1.509,1111122 
TCOON,ioos:station:TCOON:518:1,2015-10-02T11:24:00Z,29.5150,-94.5133,1.461,1111122 
TCOON,ioos:station:TCOON:518:1,2015-10-02T12:12:00Z,29.5150,-94.5133,1.471,1111122 
TCOON,ioos:station:TCOON:518:1,2015-10-02T13:18:00Z,29.5150,-94.5133,1.519,1111122 
TCOON,ioos:station:TCOON:518:1,2015-10-02T14:18:00Z,29.5150,-94.5133,1.541,1111122 
TCOON,ioos:station:TCOON:518:1,2015-10-02T15:18:00Z,29.5150,-94.5133,1.483,1111122 
TCOON,ioos:station:TCOON:518:1,2015-10-02T16:18:00Z,29.5150,-94.5133,1.457,1111122 
TCOON,ioos:station:TCOON:518:1,2015-10-02T17:24:00Z,29.5150,-94.5133,1.414,1111122 
TCOON,ioos:station:TCOON:518:1,2015-10-02T18:30:00Z,29.5150,-94.5133,1.361,1111122 
TCOON,ioos:station:TCOON:518:1,2015-10-02T19:30:00Z,29.5150,-94.5133,1.348,1111122 
TCOON,ioos:station:TCOON:518:1,2015-10-02T20:18:00Z,29.5150,-94.5133,1.317,1111122 
TCOON,ioos:station:TCOON:518:1,2015-10-02T21:18:00Z,29.5150,-94.5133,1.281,1111122 
TCOON,ioos:station:TCOON:518:1,2015-10-02T22:36:00Z,29.5150,-94.5133,1.226,1111122 
TCOON,ioos:station:TCOON:518:1,2015-10-02T23:12:00Z,29.5150,-94.5133,1.202,1111122 
TCOON,ioos:station:TCOON:518:1,2015-10-03T00:12:00Z,29.5150,-94.5133,1.198,1111122 
TCOON,ioos:station:TCOON:518:1,2015-10-03T01:30:00Z,29.5150,-94.5133,1.314,1111122 
TCOON,ioos:station:TCOON:518:1,2015-10-03T02:30:00Z,29.5150,-94.5133,1.392,1111122 
TCOON,ioos:station:TCOON:518:1,2015-10-03T03:18:00Z,29.5150,-94.5133,1.433,1111122 
TCOON,ioos:station:TCOON:518:1,2015-10-03T04:24:00Z,29.5150,-94.5133,1.487,1111122 
TCOON,ioos:station:TCOON:518:1,2015-10-03T05:18:00Z,29.5150,-94.5133,1.54,1111122 
TCOON,ioos:station:TCOON:518:1,2015-10-03T06:18:00Z,29.5150,-94.5133,1.581,1111122 
TCOON,ioos:station:TCOON:518:1,2015-10-03T07:24:00Z,29.5150,-94.5133,1.575,1111122 
TCOON,ioos:station:TCOON:518:1,2015-10-03T08:18:00Z,29.5150,-94.5133,1.567,1111122 
TCOON,ioos:station:TCOON:518:1,2015-10-03T09:12:00Z,29.5150,-94.5133,1.562,1111122 
TCOON,ioos:station:TCOON:518:1,2015-10-03T10:12:00Z,29.5150,-94.5133,1.569,1111122 
TCOON,ioos:station:TCOON:518:1,2015-10-03T11:12:00Z,29.5150,-94.5133,1.572,1111122 
TCOON,ioos:station:TCOON:518:1,2015-10-03T12:18:00Z,29.5150,-94.5133,1.594,1111122 
TCOON,ioos:station:TCOON:518:1,2015-10-03T13:12:00Z,29.5150,-94.5133,1.61,1111122 
TCOON,ioos:station:TCOON:518:1,2015-10-03T14:24:00Z,29.5150,-94.5133,1.623,1111122 
TCOON,ioos:station:TCOON:518:1,2015-10-03T15:18:00Z,29.5150,-94.5133,1.613,1111122 
TCOON,ioos:station:TCOON:518:1,2015-10-03T16:24:00Z,29.5150,-94.5133,1.609,1111122 
TCOON,ioos:station:TCOON:518:1,2015-10-03T17:18:00Z,29.5150,-94.5133,1.615,1111122 
TCOON,ioos:station:TCOON:518:1,2015-10-03T18:30:00Z,29.5150,-94.5133,1.547,1111122 
TCOON,ioos:station:TCOON:518:1,2015-10-03T19:12:00Z,29.5150,-94.5133,1.515,1111122 
TCOON,ioos:station:TCOON:518:1,2015-10-03T20:36:00Z,29.5150,-94.5133,1.425,1111122 
TCOON,ioos:station:TCOON:518:1,2015-10-03T21:30:00Z,29.5150,-94.5133,1.356,1111122 
TCOON,ioos:station:TCOON:518:1,2015-10-03T22:18:00Z,29.5150,-94.5133,1.338,1111122 
TCOON,ioos:station:TCOON:518:1,2015-10-03T23:30:00Z,29.5150,-94.5133,1.301,1111122 
TCOON,ioos:station:TCOON:518:1,2015-10-04T00:18:00Z,29.5150,-94.5133,1.274,1111122 
TCOON,ioos:station:TCOON:518:1,2015-10-04T01:12:00Z,29.5150,-94.5133,1.284,1111122 
TCOON,ioos:station:TCOON:518:1,2015-10-04T02:18:00Z,29.5150,-94.5133,1.333,1111122 
TCOON,ioos:station:TCOON:518:1,2015-10-04T03:18:00Z,29.5150,-94.5133,1.447,1111122 
TCOON,ioos:station:TCOON:518:1,2015-10-04T04:18:00Z,29.5150,-94.5133,1.482,1111122 
TCOON,ioos:station:TCOON:518:1,2015-10-04T05:24:00Z,29.5150,-94.5133,1.532,1111122 
TCOON,ioos:station:TCOON:518:1,2015-10-04T06:24:00Z,29.5150,-94.5133,1.544,1111122 
TCOON,ioos:station:TCOON:518:1,2015-10-04T07:54:00Z,29.5150,-94.5133,1.566,1111122 
TCOON,ioos:station:TCOON:518:1,2015-10-04T08:12:00Z,29.5150,-94.5133,1.563,1111122 
TCOON,ioos:station:TCOON:518:1,2015-10-04T09:18:00Z,29.5150,-94.5133,1.52,1111122 
TCOON,ioos:station:TCOON:518:1,2015-10-04T10:12:00Z,29.5150,-94.5133,1.516,1111122 
TCOON,ioos:station:TCOON:518:1,2015-10-04T11:12:00Z,29.5150,-94.5133,1.491,1111122 
TCOON,ioos:station:TCOON:518:1,2015-10-04T12:12:00Z,29.5150,-94.5133,1.484,1111122 
TCOON,ioos:station:TCOON:518:1,2015-10-04T13:12:00Z,29.5150,-94.5133,1.505,1111122 
TCOON,ioos:station:TCOON:518:1,2015-10-04T14:12:00Z,29.5150,-94.5133,1.58,1111122 
TCOON,ioos:station:TCOON:518:1,2015-10-04T15:12:00Z,29.5150,-94.5133,1.576,1111122 
TCOON,ioos:station:TCOON:518:1,2015-10-04T16:12:00Z,29.5150,-94.5133,1.529,1111122 
TCOON,ioos:station:TCOON:518:1,2015-10-04T17:18:00Z,29.5150,-94.5133,1.509,1111122 
TCOON,ioos:station:TCOON:518:1,2015-10-04T18:18:00Z,29.5150,-94.5133,1.484,1111122 
TCOON,ioos:station:TCOON:518:1,2015-10-04T19:18:00Z,29.5150,-94.5133,1.451,1111122 
TCOON,ioos:station:TCOON:518:1,2015-10-04T20:24:00Z,29.5150,-94.5133,1.387,1111122 
TCOON,ioos:station:TCOON:518:1,2015-10-04T21:18:00Z,29.5150,-94.5133,1.338,1111122 
TCOON,ioos:station:TCOON:518:1,2015-10-04T22:12:00Z,29.5150,-94.5133,1.31,1111122 
TCOON,ioos:station:TCOON:518:1,2015-10-04T23:54:00Z,29.5150,-94.5133,1.226,1111122 
TCOON,ioos:station:TCOON:518:1,2015-10-05T01:18:00Z,29.5150,-94.5133,1.198,1111122 
TCOON,ioos:station:TCOON:518:1,2015-10-05T02:12:00Z,29.5150,-94.5133,1.234,1111122 
TCOON,ioos:station:TCOON:518:1,2015-10-05T03:18:00Z,29.5150,-94.5133,1.303,1111122 
TCOON,ioos:station:TCOON:518:1,2015-10-05T04:24:00Z,29.5150,-94.5133,1.322,1111122 
TCOON,ioos:station:TCOON:518:1,2015-10-05T05:12:00Z,29.5150,-94.5133,1.358,1111122 
TCOON,ioos:station:TCOON:518:1,2015-10-05T06:24:00Z,29.5150,-94.5133,1.366,1111122 
TCOON,ioos:station:TCOON:518:1,2015-10-05T07:48:00Z,29.5150,-94.5133,1.442,1111122 
TCOON,ioos:station:TCOON:518:1,2015-10-05T08:12:00Z,29.5150,-94.5133,1.476,1111122 
TCOON,ioos:station:TCOON:518:1,2015-10-05T09:12:00Z,29.5150,-94.5133,1.524,1111122 
TCOON,ioos:station:TCOON:518:1,2015-10-05T10:12:00Z,29.5150,-94.5133,1.509,1111122 
TCOON,ioos:station:TCOON:518:1,2015-10-05T11:12:00Z,29.5150,-94.5133,1.53,1111122 
TCOON,ioos:station:TCOON:518:1,2015-10-05T12:12:00Z,29.5150,-94.5133,1.572,1111122 
TCOON,ioos:station:TCOON:518:1,2015-10-05T13:12:00Z,29.5150,-94.5133,1.545,1111122 
TCOON,ioos:station:TCOON:518:1,2015-10-05T14:18:00Z,29.5150,-94.5133,1.521,1111122 
TCOON,ioos:station:TCOON:518:1,2015-10-05T15:12:00Z,29.5150,-94.5133,1.507,1111122 
TCOON,ioos:station:TCOON:518:1,2015-10-05T16:12:00Z,29.5150,-94.5133,1.514,1111122 
TCOON,ioos:station:TCOON:518:1,2015-10-05T17:12:00Z,29.5150,-94.5133,1.533,1111122 
TCOON,ioos:station:TCOON:518:1,2015-10-05T18:12:00Z,29.5150,-94.5133,1.527,1111122 
TCOON,ioos:station:TCOON:518:1,2015-10-05T19:12:00Z,29.5150,-94.5133,1.485,1111122 
TCOON,ioos:station:TCOON:518:1,2015-10-05T20:12:00Z,29.5150,-94.5133,1.467,1111122 
TCOON,ioos:station:TCOON:518:1,2015-10-05T21:12:00Z,29.5150,-94.5133,1.395,1111122 
TCOON,ioos:station:TCOON:518:1,2015-10-05T22:30:00Z,29.5150,-94.5133,1.266,1111122 
TCOON,ioos:station:TCOON:518:1,2015-10-05T23:24:00Z,29.5150,-94.5133,1.257,1111122 
TCOON,ioos:station:TCOON:518:1,2015-10-06T00:36:00Z,29.5150,-94.5133,1.221,1111122 
TCOON,ioos:station:TCOON:518:1,2015-10-06T01:42:00Z,29.5150,-94.5133,1.235,1111122 
TCOON,ioos:station:TCOON:518:1,2015-10-06T02:18:00Z,29.5150,-94.5133,1.215,1111122 
TCOON,ioos:station:TCOON:518:1,2015-10-06T03:12:00Z,29.5150,-94.5133,1.238,1111122 
TCOON,ioos:station:TCOON:518:1,2015-10-06T04:24:00Z,29.5150,-94.5133,1.309,1111122 
TCOON,ioos:station:TCOON:518:1,2015-10-06T05:24:00Z,29.5150,-94.5133,1.376,1111122 
TCOON,ioos:station:TCOON:518:1,2015-10-06T06:24:00Z,29.5150,-94.5133,1.445,1111122 
TCOON,ioos:station:TCOON:518:1,2015-10-06T07:48:00Z,29.5150,-94.5133,1.475,1111122 
TCOON,ioos:station:TCOON:518:1,2015-10-06T08:12:00Z,29.5150,-94.5133,1.477,1111122 
TCOON,ioos:station:TCOON:518:1,2015-10-06T09:12:00Z,29.5150,-94.5133,1.515,1111122 
TCOON,ioos:station:TCOON:518:1,2015-10-06T10:18:00Z,29.5150,-94.5133,1.525,1111122 
TCOON,ioos:station:TCOON:518:1,2015-10-06T11:24:00Z,29.5150,-94.5133,1.535,1111122 
TCOON,ioos:station:TCOON:518:1,2015-10-06T12:24:00Z,29.5150,-94.5133,1.535,1111122 
TCOON,ioos:station:TCOON:518:1,2015-10-06T13:18:00Z,29.5150,-94.5133,1.528,1111122 
TCOON,ioos:station:TCOON:518:1,2015-10-06T14:12:00Z,29.5150,-94.5133,1.48,1111122 
TCOON,ioos:station:TCOON:518:1,2015-10-06T15:12:00Z,29.5150,-94.5133,1.435,1111122 
TCOON,ioos:station:TCOON:518:1,2015-10-06T16:12:00Z,29.5150,-94.5133,1.398,1111122 
TCOON,ioos:station:TCOON:518:1,2015-10-06T17:12:00Z,29.5150,-94.5133,1.401,1111122 
TCOON,ioos:station:TCOON:518:1,2015-10-06T18:12:00Z,29.5150,-94.5133,1.42,1111122 
TCOON,ioos:station:TCOON:518:1,2015-10-06T19:12:00Z,29.5150,-94.5133,1.442,1111122 
TCOON,ioos:station:TCOON:518:1,2015-10-06T20:12:00Z,29.5150,-94.5133,1.438,1111122 
TCOON,ioos:station:TCOON:518:1,2015-10-06T21:12:00Z,29.5150,-94.5133,1.396,1111122 
TCOON,ioos:station:TCOON:518:1,2015-10-06T22:42:00Z,29.5150,-94.5133,1.301,1111122 
TCOON,ioos:station:TCOON:518:1,2015-10-06T23:18:00Z,29.5150,-94.5133,1.267,1111122 
TCOON,ioos:station:TCOON:518:1,2015-10-07T00:12:00Z,29.5150,-94.5133,1.221,1111122 
TCOON,ioos:station:TCOON:518:1,2015-10-07T01:12:00Z,29.5150,-94.5133,1.195,1111122 
TCOON,ioos:station:TCOON:518:1,2015-10-07T02:12:00Z,29.5150,-94.5133,1.201,1111122 
TCOON,ioos:station:TCOON:518:1,2015-10-07T03:12:00Z,29.5150,-94.5133,1.212,1111122 
TCOON,ioos:station:TCOON:518:1,2015-10-07T04:12:00Z,29.5150,-94.5133,1.242,1111122 
TCOON,ioos:station:TCOON:518:1,2015-10-07T05:12:00Z,29.5150,-94.5133,1.288,1111122 
TCOON,ioos:station:TCOON:518:1,2015-10-07T06:24:00Z,29.5150,-94.5133,1.378,1111122 
TCOON,ioos:station:TCOON:518:1,2015-10-07T07:24:00Z,29.5150,-94.5133,1.445,1111122 
TCOON,ioos:station:TCOON:518:1,2015-10-07T08:18:00Z,29.5150,-94.5133,1.498,1111122 
TCOON,ioos:station:TCOON:518:1,2015-10-07T09:24:00Z,29.5150,-94.5133,1.53,1111122 
TCOON,ioos:station:TCOON:518:1,2015-10-07T10:18:00Z,29.5150,-94.5133,1.554,1111122 
TCOON,ioos:station:TCOON:518:1,2015-10-07T11:18:00Z,29.5150,-94.5133,1.549,1111122 
TCOON,ioos:station:TCOON:518:1,2015-10-07T12:18:00Z,29.5150,-94.5133,1.546,1111122 
TCOON,ioos:station:TCOON:518:1,2015-10-07T13:24:00Z,29.5150,-94.5133,1.536,1111122 
TCOON,ioos:station:TCOON:518:1,2015-10-07T14:18:00Z,29.5150,-94.5133,1.492,1111122 
TCOON,ioos:station:TCOON:518:1,2015-10-07T19:30:00Z,29.5150,-94.5133,1.391,1111122 
TCOON,ioos:station:TCOON:518:1,2015-10-07T20:18:00Z,29.5150,-94.5133,1.392,1111122 
TCOON,ioos:station:TCOON:518:1,2015-10-07T21:12:00Z,29.5150,-94.5133,1.376,1111122 
TCOON,ioos:station:TCOON:518:1,2015-10-07T22:24:00Z,29.5150,-94.5133,1.368,1111122 
TCOON,ioos:station:TCOON:518:1,2015-10-07T23:18:00Z,29.5150,-94.5133,1.346,1111122 
TCOON,ioos:station:TCOON:518:1,2015-10-08T00:12:00Z,29.5150,-94.5133,1.303,1111122 
TCOON,ioos:station:TCOON:518:1,2015-10-08T01:12:00Z,29.5150,-94.5133,1.273,1111122 
TCOON,ioos:station:TCOON:518:1,2015-10-08T02:12:00Z,29.5150,-94.5133,1.273,1111122 
TCOON,ioos:station:TCOON:518:1,2015-10-08T03:12:00Z,29.5150,-94.5133,1.285,1111122 
TCOON,ioos:station:TCOON:518:1,2015-10-08T04:12:00Z,29.5150,-94.5133,1.297,1111122 
TCOON,ioos:station:TCOON:518:1,2015-10-08T05:12:00Z,29.5150,-94.5133,1.328,1111122 
TCOON,ioos:station:TCOON:518:1,2015-10-08T06:12:00Z,29.5150,-94.5133,1.39,1111122 
TCOON,ioos:station:TCOON:518:1,2015-10-08T07:54:00Z,29.5150,-94.5133,1.508,1111122 
TCOON,ioos:station:TCOON:518:1,2015-10-08T08:12:00Z,29.5150,-94.5133,1.533,1111122 
TCOON,ioos:station:TCOON:518:1,2015-10-08T09:12:00Z,29.5150,-94.5133,1.569,1111122 
TCOON,ioos:station:TCOON:518:1,2015-10-08T10:18:00Z,29.5150,-94.5133,1.59,1111122 
TCOON,ioos:station:TCOON:518:1,2015-10-08T11:12:00Z,29.5150,-94.5133,1.594,1111122 
TCOON,ioos:station:TCOON:518:1,2015-10-08T12:18:00Z,29.5150,-94.5133,1.597,1111122 
TCOON,ioos:station:TCOON:518:1,2015-10-08T13:18:00Z,29.5150,-94.5133,1.587,1111122 
TCOON,ioos:station:TCOON:518:1,2015-10-08T14:24:00Z,29.5150,-94.5133,1.547,1111122 
TCOON,ioos:station:TCOON:518:1,2015-10-08T15:12:00Z,29.5150,-94.5133,1.504,1111122 
TCOON,ioos:station:TCOON:518:1,2015-10-08T16:24:00Z,29.5150,-94.5133,1.454,1111122 
TCOON,ioos:station:TCOON:518:1,2015-10-08T17:12:00Z,29.5150,-94.5133,1.432,1111122 
TCOON,ioos:station:TCOON:518:1,2015-10-08T18:18:00Z,29.5150,-94.5133,1.431,1111122 
TCOON,ioos:station:TCOON:518:1,2015-10-08T19:24:00Z,29.5150,-94.5133,1.431,1111122 
TCOON,ioos:station:TCOON:518:1,2015-10-08T20:24:00Z,29.5150,-94.5133,1.426,1111122 
TCOON,ioos:station:TCOON:518:1,2015-10-08T21:24:00Z,29.5150,-94.5133,1.452,1111122 
TCOON,ioos:station:TCOON:518:1,2015-10-08T22:24:00Z,29.5150,-94.5133,1.438,1111122 
TCOON,ioos:station:TCOON:518:1,2015-10-08T23:18:00Z,29.5150,-94.5133,1.437,1111122 
TCOON,ioos:station:TCOON:518:1,2015-10-09T00:18:00Z,29.5150,-94.5133,1.426,1111122 
TCOON,ioos:station:TCOON:518:1,2015-10-09T01:12:00Z,29.5150,-94.5133,1.422,1111122 
TCOON,ioos:station:TCOON:518:1,2015-10-09T02:12:00Z,29.5150,-94.5133,1.408,1111122 
TCOON,ioos:station:TCOON:518:1,2015-10-09T03:12:00Z,29.5150,-94.5133,1.383,1111122 
TCOON,ioos:station:TCOON:518:1,2015-10-09T04:18:00Z,29.5150,-94.5133,1.374,1111122 
TCOON,ioos:station:TCOON:518:1,2015-10-09T05:12:00Z,29.5150,-94.5133,1.378,1111122 
TCOON,ioos:station:TCOON:518:1,2015-10-09T06:24:00Z,29.5150,-94.5133,1.434,1111122 
TCOON,ioos:station:TCOON:518:1,2015-10-09T07:54:00Z,29.5150,-94.5133,1.551,1111122 
TCOON,ioos:station:TCOON:518:1,2015-10-09T08:18:00Z,29.5150,-94.5133,1.571,1111122 
TCOON,ioos:station:TCOON:518:1,2015-10-09T09:18:00Z,29.5150,-94.5133,1.62,1111122 
TCOON,ioos:station:TCOON:518:1,2015-10-09T10:12:00Z,29.5150,-94.5133,1.641,1111122 
TCOON,ioos:station:TCOON:518:1,2015-10-09T11:18:00Z,29.5150,-94.5133,1.64,1111122 
TCOON,ioos:station:TCOON:518:1,2015-10-09T12:12:00Z,29.5150,-94.5133,1.66,1111122 
TCOON,ioos:station:TCOON:518:1,2015-10-09T13:12:00Z,29.5150,-94.5133,1.647,1111122 
TCOON,ioos:station:TCOON:518:1,2015-10-09T14:12:00Z,29.5150,-94.5133,1.634,1111122 
TCOON,ioos:station:TCOON:518:1,2015-10-09T15:18:00Z,29.5150,-94.5133,1.594,1111122 
TCOON,ioos:station:TCOON:518:1,2015-10-09T16:24:00Z,29.5150,-94.5133,1.531,1111122 
TCOON,ioos:station:TCOON:518:1,2015-10-09T17:18:00Z,29.5150,-94.5133,1.513,1111122 
TCOON,ioos:station:TCOON:518:1,2015-10-09T18:18:00Z,29.5150,-94.5133,1.516,1111122 
TCOON,ioos:station:TCOON:518:1,2015-10-09T19:18:00Z,29.5150,-94.5133,1.531,1111122 
TCOON,ioos:station:TCOON:518:1,2015-10-09T20:18:00Z,29.5150,-94.5133,1.541,1111122 
TCOON,ioos:station:TCOON:518:1,2015-10-09T21:24:00Z,29.5150,-94.5133,1.578,1111122 
TCOON,ioos:station:TCOON:518:1,2015-10-09T22:24:00Z,29.5150,-94.5133,1.571,1111122 
TCOON,ioos:station:TCOON:518:1,2015-10-09T23:24:00Z,29.5150,-94.5133,1.571,1111122 
TCOON,ioos:station:TCOON:518:1,2015-10-11T01:54:00Z,29.5150,-94.5133,1.531,1111122 
TCOON,ioos:station:TCOON:518:1,2015-10-11T02:18:00Z,29.5150,-94.5133,1.536,1111122 
TCOON,ioos:station:TCOON:518:1,2015-10-11T03:18:00Z,29.5150,-94.5133,1.503,1111122 
TCOON,ioos:station:TCOON:518:1,2015-10-11T04:18:00Z,29.5150,-94.5133,1.475,1111122 
TCOON,ioos:station:TCOON:518:1,2015-10-11T05:30:00Z,29.5150,-94.5133,1.432,1111122 
TCOON,ioos:station:TCOON:518:1,2015-10-11T06:18:00Z,29.5150,-94.5133,1.417,1111122 
TCOON,ioos:station:TCOON:518:1,2015-10-11T07:54:00Z,29.5150,-94.5133,1.447,1111122 
TCOON,ioos:station:TCOON:518:1,2015-10-11T08:12:00Z,29.5150,-94.5133,1.465,1111122 
TCOON,ioos:station:TCOON:518:1,2015-10-11T09:12:00Z,29.5150,-94.5133,1.509,1111122 
TCOON,ioos:station:TCOON:518:1,2015-10-11T10:12:00Z,29.5150,-94.5133,1.568,1111122 
TCOON,ioos:station:TCOON:518:1,2015-10-11T11:12:00Z,29.5150,-94.5133,1.59,1111122 
TCOON,ioos:station:TCOON:518:1,2015-10-11T12:12:00Z,29.5150,-94.5133,1.6,1111122 
TCOON,ioos:station:TCOON:518:1,2015-10-11T13:12:00Z,29.5150,-94.5133,1.588,1111122 
TCOON,ioos:station:TCOON:518:1,2015-10-11T14:12:00Z,29.5150,-94.5133,1.568,1111122 
TCOON,ioos:station:TCOON:518:1,2015-10-11T15:12:00Z,29.5150,-94.5133,1.54,1111122 
TCOON,ioos:station:TCOON:518:1,2015-10-11T16:12:00Z,29.5150,-94.5133,1.497,1111122 
TCOON,ioos:station:TCOON:518:1,2015-10-11T17:12:00Z,29.5150,-94.5133,1.482,1111122 
TCOON,ioos:station:TCOON:518:1,2015-10-11T18:12:00Z,29.5150,-94.5133,1.452,1111122 
TCOON,ioos:station:TCOON:518:1,2015-10-11T19:12:00Z,29.5150,-94.5133,1.445,1111122 
TCOON,ioos:station:TCOON:518:1,2015-10-11T20:12:00Z,29.5150,-94.5133,1.471,1111122 
TCOON,ioos:station:TCOON:518:1,2015-10-11T21:12:00Z,29.5150,-94.5133,1.515,1111122 
TCOON,ioos:station:TCOON:518:1,2015-10-11T22:24:00Z,29.5150,-94.5133,1.586,1111122 
TCOON,ioos:station:TCOON:518:1,2015-10-11T23:24:00Z,29.5150,-94.5133,1.629,1111122 
TCOON,ioos:station:TCOON:518:1,2015-10-12T00:12:00Z,29.5150,-94.5133,1.631,1111122 
TCOON,ioos:station:TCOON:518:1,2015-10-12T01:12:00Z,29.5150,-94.5133,1.639,1111122 
TCOON,ioos:station:TCOON:518:1,2015-10-12T02:12:00Z,29.5150,-94.5133,1.671,1111122 
TCOON,ioos:station:TCOON:518:1,2015-10-12T03:18:00Z,29.5150,-94.5133,1.672,1111122 
TCOON,ioos:station:TCOON:518:1,2015-10-12T04:12:00Z,29.5150,-94.5133,1.644,1111122 
TCOON,ioos:station:TCOON:518:1,2015-10-12T05:24:00Z,29.5150,-94.5133,1.598,1111122 
TCOON,ioos:station:TCOON:518:1,2015-10-12T06:24:00Z,29.5150,-94.5133,1.577,1111122 
TCOON,ioos:station:TCOON:518:1,2015-10-12T07:54:00Z,29.5150,-94.5133,1.567,1111122 
TCOON,ioos:station:TCOON:518:1,2015-10-12T09:18:00Z,29.5150,-94.5133,1.591,1111122 
TCOON,ioos:station:TCOON:518:1,2015-10-12T10:24:00Z,29.5150,-94.5133,1.635,1111122 
TCOON,ioos:station:TCOON:518:1,2015-10-12T11:12:00Z,29.5150,-94.5133,1.641,1111122 
TCOON,ioos:station:TCOON:518:1,2015-10-12T12:12:00Z,29.5150,-94.5133,1.661,1111122 
TCOON,ioos:station:TCOON:518:1,2015-10-12T13:12:00Z,29.5150,-94.5133,1.666,1111122 
TCOON,ioos:station:TCOON:518:1,2015-10-12T14:12:00Z,29.5150,-94.5133,1.648,1111122 
TCOON,ioos:station:TCOON:518:1,2015-10-12T15:12:00Z,29.5150,-94.5133,1.609,1111122 
TCOON,ioos:station:TCOON:518:1,2015-10-12T16:18:00Z,29.5150,-94.5133,1.597,1111122 
TCOON,ioos:station:TCOON:518:1,2015-10-12T17:12:00Z,29.5150,-94.5133,1.583,1111122 
TCOON,ioos:station:TCOON:518:1,2015-10-12T18:12:00Z,29.5150,-94.5133,1.558,1111122 
TCOON,ioos:station:TCOON:518:1,2015-10-12T19:12:00Z,29.5150,-94.5133,1.527,1111122 
TCOON,ioos:station:TCOON:518:1,2015-10-12T20:12:00Z,29.5150,-94.5133,1.545,1111122 
TCOON,ioos:station:TCOON:518:1,2015-10-12T21:12:00Z,29.5150,-94.5133,1.567,1111122 
TCOON,ioos:station:TCOON:518:1,2015-10-12T22:18:00Z,29.5150,-94.5133,1.612,1111122 
TCOON,ioos:station:TCOON:518:1,2015-10-12T23:18:00Z,29.5150,-94.5133,1.668,1111122 
TCOON,ioos:station:TCOON:518:1,2015-10-13T00:12:00Z,29.5150,-94.5133,1.697,1111122 
TCOON,ioos:station:TCOON:518:1,2015-10-13T01:06:00Z,29.5150,-94.5133,1.714,1111122 
TCOON,ioos:station:TCOON:518:1,2015-10-13T02:12:00Z,29.5150,-94.5133,1.708,1111122 
TCOON,ioos:station:TCOON:518:1,2015-10-13T03:12:00Z,29.5150,-94.5133,1.669,1111122 
TCOON,ioos:station:TCOON:518:1,2015-10-13T04:12:00Z,29.5150,-94.5133,1.638,1111122 
TCOON,ioos:station:TCOON:518:1,2015-10-13T05:12:00Z,29.5150,-94.5133,1.611,1111122 
TCOON,ioos:station:TCOON:518:1,2015-10-13T06:24:00Z,29.5150,-94.5133,1.569,1111122 
TCOON,ioos:station:TCOON:518:1,2015-10-13T07:54:00Z,29.5150,-94.5133,1.552,1111122 
TCOON,ioos:station:TCOON:518:1,2015-10-13T08:12:00Z,29.5150,-94.5133,1.542,1111122 
TCOON,ioos:station:TCOON:518:1,2015-10-13T09:12:00Z,29.5150,-94.5133,1.566,1111122 
TCOON,ioos:station:TCOON:518:1,2015-10-13T10:18:00Z,29.5150,-94.5133,1.587,1111122 
TCOON,ioos:station:TCOON:518:1,2015-10-13T11:24:00Z,29.5150,-94.5133,1.598,1111122 
TCOON,ioos:station:TCOON:518:1,2015-10-13T12:18:00Z,29.5150,-94.5133,1.608,1111122 
TCOON,ioos:station:TCOON:518:1,2015-10-13T13:18:00Z,29.5150,-94.5133,1.574,1111122 
TCOON,ioos:station:TCOON:518:1,2015-10-13T14:12:00Z,29.5150,-94.5133,1.537,1111122 
TCOON,ioos:station:TCOON:518:1,2015-10-13T15:12:00Z,29.5150,-94.5133,1.484,1111122 
TCOON,ioos:station:TCOON:518:1,2015-10-13T16:12:00Z,29.5150,-94.5133,1.425,1111122 
TCOON,ioos:station:TCOON:518:1,2015-10-13T17:12:00Z,29.5150,-94.5133,1.38,1111122 
TCOON,ioos:station:TCOON:518:1,2015-10-13T18:12:00Z,29.5150,-94.5133,1.346,1111122 
TCOON,ioos:station:TCOON:518:1,2015-10-13T19:12:00Z,29.5150,-94.5133,1.347,1111122 
TCOON,ioos:station:TCOON:518:1,2015-10-13T20:18:00Z,29.5150,-94.5133,1.37,1111122 
TCOON,ioos:station:TCOON:518:1,2015-10-13T21:12:00Z,29.5150,-94.5133,1.391,1111122 
TCOON,ioos:station:TCOON:518:1,2015-10-13T22:18:00Z,29.5150,-94.5133,1.43,1111122 
TCOON,ioos:station:TCOON:518:1,2015-10-13T23:18:00Z,29.5150,-94.5133,1.47,1111122 
TCOON,ioos:station:TCOON:518:1,2015-10-14T00:12:00Z,29.5150,-94.5133,1.523,1111122 
TCOON,ioos:station:TCOON:518:1,2015-10-14T01:12:00Z,29.5150,-94.5133,1.565,1111122 
TCOON,ioos:station:TCOON:518:1,2015-10-14T02:12:00Z,29.5150,-94.5133,1.582,1111122 
TCOON,ioos:station:TCOON:518:1,2015-10-14T03:12:00Z,29.5150,-94.5133,1.588,1111122 